User: anonymous   Login
Location: Theydon Bois
(51.6750°N, 0.1050°E)
Time: 04:09:46
(UTC+00:00)
Language:

YAOGAN 1 - Orbit

View from above orbital plane
View from above orbital plane
View from above satellite
View from above satellite

Ground track
Ground track

The orbit data is extracted from the following two-line orbital elements,

1 29092U 06015A   17344.58849945 +.00000055 +00000-0 +13481-4 0  9996
2 29092 097.9985 356.1013 0001358 090.9798 269.1570 14.82866385628400
Epoch (UTC): 10 December 2017 14:07:26
Eccentricity: 0.0001358
inclination: 97.9985°
perigee height: 619 km
apogee height: 621 km
right ascension of ascending node: 356.1013°
argument of perigee: 90.9798°
revolutions per day: 14.82866385
mean anomaly at epoch: 269.1570°
orbit number at epoch: 62840

The dashed part of the orbit path shows where the satellite is in the earth's shadow,  

DLR